Hourly Weather Bolshoe Pavlovo

Today, 30 July, Friday

Time Temperature Precipitation Wind Pressure Humidity
00:00 +18°C° 1.3 mm 2 mps 736 mmHg 97%
01:00 +19°C° 1.3 mm 1 mps 736 mmHg 97%
02:00 +20°C° 0 mm 1 mps 736 mmHg 97%
03:00 +20°C° 0.3 mm 1 mps 736 mmHg 97%
04:00 +20°C° 0.3 mm 1 mps 736 mmHg 97%
05:00 +20°C° 0.3 mm 1 mps 736 mmHg 97%
06:00 +20°C° 0 mm 1 mps 736 mmHg 95%
07:00 +20°C° 0 mm 2 mps 736 mmHg 93%
08:00 +20°C° 0 mm 2 mps 736 mmHg 89%
09:00 +23°C° 0.2 mm 2 mps 736 mmHg 80%
10:00 +24°C° 0.2 mm 3 mps 736 mmHg 72%
11:00 +26°C° 0.2 mm 4 mps 736 mmHg 63%
12:00 +26°C° 0 mm 4 mps 736 mmHg 58%
13:00 +27°C° 0 mm 4 mps 736 mmHg 52%
14:00 +28°C° 0 mm 4 mps 736 mmHg 48%
15:00 +27°C° 0 mm 4 mps 736 mmHg 51%
16:00 +26°C° 0 mm 4 mps 736 mmHg 54%
17:00 +25°C° 0 mm 3 mps 736 mmHg 57%
18:00 +22°C° 0 mm 3 mps 736 mmHg 62%
19:00 +21°C° 0 mm 3 mps 736 mmHg 67%
20:00 +19°C° 0 mm 2 mps 736 mmHg 72%
21:00 +19°C° 0 mm 2 mps 736 mmHg 72%
22:00 +18°C° 0 mm 2 mps 736 mmHg 71%
23:00 +18°C° 0 mm 2 mps 737 mmHg 70%

Tomorrow, 31 July, Saturday

Time Temperature Precipitation Wind Pressure Humidity
00:00 +18°C° 0 mm 3 mps 737 mmHg 71%
01:00 +18°C° 0 mm 3 mps 736 mmHg 73%
02:00 +17°C° 0 mm 3 mps 736 mmHg 74%
03:00 +17°C° 0 mm 3 mps 736 mmHg 74%
04:00 +18°C° 0 mm 3 mps 736 mmHg 74%
05:00 +18°C° 0 mm 3 mps 736 mmHg 74%
06:00 +19°C° 0 mm 3 mps 737 mmHg 67%
07:00 +21°C° 0 mm 4 mps 737 mmHg 61%
08:00 +22°C° 0 mm 4 mps 737 mmHg 54%
09:00 +23°C° 0 mm 5 mps 737 mmHg 49%
10:00 +25°C° 0 mm 5 mps 737 mmHg 45%
11:00 +26°C° 0 mm 6 mps 737 mmHg 40%
12:00 +26°C° 0 mm 6 mps 737 mmHg 40%
13:00 +27°C° 0 mm 6 mps 737 mmHg 39%
14:00 +27°C° 0 mm 6 mps 738 mmHg 38%
15:00 +27°C° 0 mm 6 mps 738 mmHg 41%
16:00 +27°C° 0 mm 5 mps 738 mmHg 43%
17:00 +27°C° 0 mm 4 mps 738 mmHg 46%
18:00 +25°C° 0 mm 3 mps 738 mmHg 53%
19:00 +22°C° 0 mm 3 mps 738 mmHg 60%
20:00 +19°C° 0 mm 2 mps 738 mmHg 66%
21:00 +19°C° 0 mm 2 mps 738 mmHg 68%
22:00 +18°C° 0 mm 2 mps 738 mmHg 69%
23:00 +18°C° 0 mm 2 mps 739 mmHg 71%

Day after tomorrow, 1 August, Sunday

Time Temperature Precipitation Wind Pressure Humidity
00:00 +18°C° 0 mm 2 mps 739 mmHg 72%
01:00 +18°C° 0 mm 2 mps 739 mmHg 72%
02:00 +18°C° 0 mm 2 mps 739 mmHg 73%
03:00 +17°C° 0.3 mm 2 mps 738 mmHg 78%
04:00 +17°C° 0.3 mm 2 mps 738 mmHg 82%
05:00 +17°C° 0.3 mm 3 mps 738 mmHg 87%
06:00 +18°C° 0.3 mm 2 mps 738 mmHg 88%
07:00 +18°C° 0.3 mm 2 mps 738 mmHg 90%
08:00 +19°C° 0.3 mm 2 mps 738 mmHg 91%
09:00 +20°C° 0.1 mm 3 mps 739 mmHg 88%
10:00 +21°C° 0.1 mm 3 mps 739 mmHg 85%
11:00 +21°C° 0.1 mm 3 mps 739 mmHg 82%
12:00 +22°C° 0 mm 3 mps 739 mmHg 79%
13:00 +23°C° 0 mm 4 mps 739 mmHg 77%
14:00 +23°C° 0 mm 4 mps 739 mmHg 74%
15:00 +25°C° 0 mm 4 mps 739 mmHg 69%
16:00 +26°C° 0 mm 3 mps 739 mmHg 64%
17:00 +27°C° 0 mm 3 mps 738 mmHg 60%
18:00 +25°C° 0 mm 3 mps 738 mmHg 66%
19:00 +23°C° 0 mm 2 mps 738 mmHg 73%
20:00 +21°C° 0 mm 2 mps 738 mmHg 79%
21:00 +21°C° 0 mm 1 mps 738 mmHg 82%
22:00 +20°C° 0 mm 1 mps 738 mmHg 84%
23:00 +19°C° 0 mm 1 mps 738 mmHg 87%

2 August, Monday

Time Temperature Precipitation Wind Pressure Humidity
00:00 +19°C° 0 mm 1 mps 738 mmHg 88%
01:00 +19°C° 0 mm 1 mps 738 mmHg 89%
02:00 +19°C° 0 mm 1 mps 738 mmHg 90%
03:00 +19°C° 0 mm 1 mps 738 mmHg 91%
04:00 +18°C° 0 mm 2 mps 738 mmHg 92%
05:00 +18°C° 0 mm 2 mps 738 mmHg 93%
06:00 +20°C° 0 mm 2 mps 737 mmHg 86%
07:00 +22°C° 0 mm 3 mps 737 mmHg 80%
08:00 +25°C° 0 mm 3 mps 737 mmHg 73%
09:00 +25°C° 0 mm 4 mps 736 mmHg 68%
10:00 +26°C° 0 mm 5 mps 736 mmHg 63%
11:00 +27°C° 0 mm 5 mps 736 mmHg 59%
12:00 +29°C° 0 mm 6 mps 735 mmHg 54%
13:00 +30°C° 0 mm 6 mps 734 mmHg 50%
14:00 +33°C° 0 mm 7 mps 734 mmHg 45%
15:00 +28°C° 5.2 mm 5 mps 734 mmHg 61%
16:00 +23°C° 5.2 mm 4 mps 733 mmHg 77%
17:00 +20°C° 5.2 mm 2 mps 733 mmHg 93%
18:00 +19°C° 1.3 mm 2 mps 734 mmHg 94%
19:00 +18°C° 1.3 mm 2 mps 734 mmHg 95%
20:00 +18°C° 1.3 mm 2 mps 735 mmHg 96%
21:00 +17°C° 0.2 mm 2 mps 735 mmHg 96%
22:00 +17°C° 0.2 mm 2 mps 735 mmHg 97%
23:00 +17°C° 0.2 mm 2 mps 735 mmHg 97%

3 August, Tuesday

Time Temperature Precipitation Wind Pressure Humidity
00:00 +16°C° 0 mm 2 mps 735 mmHg 97%
01:00 +14°C° 0 mm 3 mps 735 mmHg 98%
02:00 +14°C° 0 mm 3 mps 735 mmHg 98%
03:00 +15°C° 0 mm 2 mps 736 mmHg 98%
04:00 +15°C° 0 mm 2 mps 736 mmHg 97%
05:00 +15°C° 0 mm 2 mps 737 mmHg 97%
06:00 +15°C° 0.2 mm 2 mps 737 mmHg 96%
07:00 +15°C° 0.2 mm 2 mps 737 mmHg 96%
08:00 +16°C° 0.2 mm 3 mps 738 mmHg 96%
09:00 +16°C° 0.3 mm 3 mps 738 mmHg 96%
10:00 +16°C° 0.3 mm 3 mps 738 mmHg 95%
11:00 +16°C° 0.3 mm 3 mps 739 mmHg 95%
12:00 +16°C° 0 mm 3 mps 739 mmHg 90%
13:00 +17°C° 0 mm 3 mps 739 mmHg 85%
14:00 +18°C° 0 mm 4 mps 739 mmHg 79%
15:00 +19°C° 0.1 mm 4 mps 739 mmHg 75%
16:00 +19°C° 0.1 mm 4 mps 739 mmHg 71%
17:00 +20°C° 0.1 mm 4 mps 739 mmHg 66%
18:00 +19°C° 0 mm 3 mps 740 mmHg 69%
19:00 +18°C° 0 mm 3 mps 740 mmHg 71%
20:00 +17°C° 0 mm 2 mps 740 mmHg 73%
21:00 +16°C° 0 mm 2 mps 740 mmHg 78%
22:00 +15°C° 0 mm 2 mps 741 mmHg 83%
23:00 +14°C° 0 mm 2 mps 741 mmHg 88%

4 August, Wednesday

Time Temperature Precipitation Wind Pressure Humidity
00:00 +14°C° 0 mm 2 mps 741 mmHg 90%
01:00 +13°C° 0 mm 2 mps 741 mmHg 92%
02:00 +13°C° 0 mm 2 mps 742 mmHg 95%
03:00 +13°C° 0 mm 2 mps 742 mmHg 94%
04:00 +13°C° 0 mm 1 mps 742 mmHg 94%
05:00 +13°C° 0 mm 1 mps 743 mmHg 93%
06:00 +15°C° 0 mm 1 mps 743 mmHg 85%
07:00 +18°C° 0 mm 1 mps 743 mmHg 76%
08:00 +19°C° 0 mm 2 mps 743 mmHg 68%
09:00 +20°C° 0 mm 2 mps 743 mmHg 62%
10:00 +21°C° 0 mm 2 mps 744 mmHg 56%
11:00 +23°C° 0 mm 2 mps 744 mmHg 50%
12:00 +24°C° 0 mm 1 mps 744 mmHg 48%
13:00 +24°C° 0 mm 1 mps 744 mmHg 46%
14:00 +24°C° 0 mm 1 mps 744 mmHg 44%
15:00 +24°C° 0 mm 1 mps 744 mmHg 46%
16:00 +24°C° 0 mm 1 mps 743 mmHg 48%
17:00 +24°C° 0 mm 1 mps 743 mmHg 50%
18:00 +22°C° 0 mm 1 mps 744 mmHg 55%
19:00 +21°C° 0 mm 1 mps 744 mmHg 60%
20:00 +19°C° 0 mm 1 mps 744 mmHg 65%
21:00 +17°C° 0 mm 2 mps 744 mmHg 68%
22:00 +17°C° 0 mm 2 mps 744 mmHg 71%
23:00 +16°C° 0 mm 2 mps 744 mmHg 74%
Show more

We Need Your Consent

Meteoprog and our Service Providers may store and access personal data such as cookies, device identifiers or other similar technologies on your device and process such data to personalise content and ads, as well as provide social media features and to analyse the traffic.

  • Store and/or access information on your device

    Cookies, device identifiers or other information can be stored or accessed on your device for the purposes indicated above.

  • Personalised ads and content, ad and content measurement, audience insights, and products development

    Ads and content can be personalised based on a profile. More data can be added to better personalise ads and content. Ad and content performance can be measured. Insights about the audience who saw the ads and content can be derived. Such data can be used to develop or improve user’s experience, systems and software.

By clicking ‘I Agree’ you will allow the use of indicated cookies, device identifiers, web beacons or other similar technologies. Your settings can be changed in the browser on your device.

For certain purposes, legitimate interests may be relied on, rather than consent. You can read more about this in our Privacy and Cookie Policy.